QPF
0.00 0.00 0.00 0.00 0.00 0.00 0.00 0.00 0.00 0.00 0.00 0.00 0.00 0.00 0.00 0.00 0.00 0.00 0.00 0.00 0.00 0.00 0.01 0.01 0.02 0.02 0.03 0.04 0.05 0.07 0.08 0.11 0.14 0.16 0.20 0.23 0.22 0.21
0.00 0.01 0.01 0.00 0.00 0.00 0.00 0.00 0.00 0.00 0.00 0.00 0.00 0.00 0.00 0.00 0.00 0.00 0.00 0.00 0.00 0.00 0.00 0.01 0.01 0.02 0.02 0.03 0.04 0.06 0.07 0.10 0.13 0.16 0.20 0.25 0.26 0.24
0.01 0.01 0.01 0.01 0.01 0.00 0.00 0.00 0.00 0.00 0.01 0.00 0.00 0.00 0.00 0.00 0.00 0.00 0.00 0.00 0.00 0.00 0.00 0.00 0.01 0.01 0.02 0.03 0.03 0.04 0.06 0.08 0.11 0.15 0.20 0.25 0.28 0.27
0.01 0.01 0.01 0.01 0.01 0.01 0.00 0.00 0.00 0.00 0.01 0.00 0.00 0.00 0.00 0.00 0.00 0.00 0.00 0.00 0.00 0.00 0.00 0.00 0.01 0.01 0.02 0.02 0.02 0.03 0.03 0.05 0.07 0.10 0.16 0.22 0.25 0.27
0.01 0.01 0.01 0.01 0.01 0.01 0.01 0.01 0.00 0.00 0.00 0.01 0.00 0.00 0.00 0.00 0.00 0.00 0.00 0.00 0.00 0.00 0.00 0.00 0.00 0.01 0.01 0.01 0.02 0.02 0.02 0.03 0.04 0.06 0.10 0.15 0.19 0.23
0.01 0.01 0.01 0.01 0.01 0.01 0.01 0.01 0.00 0.00 0.01 0.01 0.01 0.01 0.01 0.00 0.01 0.01 0.00 0.00 0.00 0.00 0.00 0.00 0.00 0.00 0.00 0.01 0.01 0.01 0.01 0.02 0.03 0.04 0.06 0.09 0.13 0.16
0.01 0.01 0.01 0.01 0.01 0.01 0.01 0.01 0.01 0.02 0.02 0.03 0.02 0.02 0.01 0.01 0.01 0.01 0.01 0.00 0.00 0.00 0.00 0.00 0.00 0.00 0.00 0.00 0.00 0.00 0.01 0.01 0.02 0.03 0.04 0.05 0.09 0.12
0.01 0.01 0.01 0.01 0.01 0.01 0.02 0.02 0.03 0.04 0.04 0.04 0.03 0.03 0.02 0.01 0.01 0.01 0.01 0.01 0.01 0.00 0.00 0.00 0.00 0.00 0.00 0.00 0.00 0.00 0.01 0.01 0.02 0.02 0.03 0.04 0.06 0.08
0.01 0.01 0.01 0.01 0.01 0.01 0.02 0.02 0.02 0.03 0.03 0.04 0.04 0.02 0.01 0.01 0.01 0.01 0.01 0.01 0.01 0.00 0.01 0.01 0.00 0.00 0.00 0.00 0.00 0.01 0.01 0.02 0.02 0.02 0.03 0.04 0.04 0.06
0.01 0.01 0.02 0.01 0.01 0.01 0.01 0.02 0.01 0.01 0.01 0.01 0.01 0.01 0.01 0.01 0.03 0.05 0.05 0.05 0.03 0.01 0.01 0.02 0.01 0.01 0.00 0.00 0.00 0.01 0.01 0.02 0.02 0.02 0.02 0.03 0.04 0.04
0.01 0.01 0.02 0.01 0.01 0.01 0.03 0.02 0.01 0.01 0.01 0.01 0.01 0.02 0.03 0.04 0.05 0.07 0.07 0.05 0.03 0.01 0.01 0.01 0.01 0.00 0.00 0.00 0.00 0.01 0.01 0.02 0.02 0.02 0.02 0.03 0.03 0.03
0.02 0.02 0.01 0.01 0.01 0.02 0.04 0.03 0.02 0.01 0.01 0.01 0.01 0.01 0.01 0.01 0.01 0.02 0.02 0.02 0.02 0.01 0.01 0.01 0.02 0.02 0.02 0.00 0.00 0.01 0.01 0.01 0.01 0.01 0.02 0.02 0.03 0.03
0.03 0.03 0.01 0.01 0.02 0.03 0.04 0.03 0.02 0.01 0.02 0.01 0.01 0.00 0.00 0.00 0.00 0.00 0.01 0.02 0.02 0.02 0.00 0.02 0.03 0.02 0.03 0.01 0.00 0.00 0.01 0.01 0.01 0.01 0.01 0.01 0.02 0.02
0.04 0.02 0.01 0.01 0.02 0.03 0.04 0.03 0.02 0.02 0.02 0.02 0.01 0.01 0.00 0.00 0.00 0.00 0.00 0.01 0.01 0.01 0.01 0.02 0.04 0.03 0.03 0.02 0.01 0.00 0.00 0.01 0.01 0.02 0.01 0.01 0.01 0.02
0.04 0.02 0.02 0.02 0.03 0.03 0.03 0.03 0.02 0.02 0.02 0.01 0.01 0.00 0.00 0.00 0.00 0.00 0.00 0.00 0.01 0.01 0.01 0.02 0.03 0.04 0.04 0.04 0.02 0.01 0.01 0.01 0.01 0.02 0.02 0.01 0.01 0.01
0.08 0.05 0.04 0.04 0.03 0.02 0.02 0.02 0.02 0.02 0.01 0.01 0.00 0.00 0.00 0.00 0.00 0.00 0.00 0.01 0.01 0.01 0.01 0.01 0.02 0.04 0.05 0.03 0.03 0.02 0.01 0.01 0.01 0.01 0.02 0.02 0.01 0.01
0.10 0.10 0.08 0.06 0.05 0.03 0.02 0.01 0.01 0.01 0.01 0.01 0.00 0.00 0.00 0.00 0.00 0.00 0.01 0.01 0.01 0.01 0.01 0.01 0.02 0.03 0.03 0.04 0.04 0.02 0.02 0.01 0.01 0.01 0.01 0.01 0.01 0.01
0.11 0.11 0.06 0.04 0.03 0.02 0.01 0.01 0.01 0.01 0.00 0.00 0.00 0.00 0.00 0.00 0.00 0.00 0.01 0.01 0.02 0.01 0.01 0.01 0.02 0.03 0.03 0.02 0.02 0.02 0.02 0.02 0.01 0.01 0.01 0.01 0.01 0.01
0.12 0.08 0.04 0.03 0.02 0.01 0.01 0.01 0.01 0.00 0.00 0.00 0.00 0.00 0.00 0.00 0.01 0.01 0.01 0.01 0.02 0.01 0.01 0.02 0.03 0.04 0.04 0.02 0.01 0.02 0.03 0.03 0.02 0.02 0.01 0.01 0.01 0.00
0.09 0.05 0.03 0.02 0.02 0.01 0.01 0.01 0.01 0.00 0.00 0.00 0.00 0.00 0.01 0.01 0.01 0.01 0.01 0.02 0.02 0.02 0.01 0.02 0.03 0.04 0.05 0.03 0.02 0.01 0.02 0.03 0.03 0.02 0.01 0.01 0.01 0.00
0.05 0.04 0.03 0.02 0.02 0.01 0.01 0.01 0.01 0.01 0.01 0.00 0.00 0.01 0.01 0.01 0.01 0.01 0.01 0.02 0.03 0.03 0.02 0.02 0.02 0.03 0.05 0.05 0.03 0.02 0.01 0.01 0.02 0.03 0.02 0.02 0.01 0.01
0.03 0.03 0.02 0.02 0.02 0.01 0.01 0.01 0.01 0.01 0.01 0.01 0.01 0.01 0.01 0.01 0.01 0.01 0.01 0.02 0.02 0.03 0.03 0.02 0.02 0.03 0.04 0.05 0.03 0.02 0.01 0.00 0.01 0.01 0.02 0.02 0.02 0.01
0.03 0.03 0.02 0.02 0.02 0.01 0.01 0.01 0.01 0.01 0.01 0.01 0.01 0.01 0.01 0.01 0.01 0.01 0.02 0.02 0.03 0.03 0.03 0.03 0.02 0.03 0.03 0.04 0.03 0.03 0.02 0.01 0.02 0.01 0.01 0.01 0.01 0.01
MSLP
1014.44 1014.89 1015.37 1015.83 1016.28 1016.68 1017.04 1017.32 1017.53 1017.68 1017.75 1017.76 1017.70 1017.59 1017.44 1017.25 1017.03 1016.78 1016.52 1016.25 1015.97 1015.68 1015.37 1015.04 1014.70 1014.33 1013.94 1013.53 1013.12 1012.71 1012.30 1011.90 1011.50 1011.09 1010.67 1010.22 1009.73 1009.20
1013.24 1013.71 1014.21 1014.71 1015.20 1015.66 1016.06 1016.40 1016.66 1016.85 1016.96 1016.99 1016.96 1016.86 1016.71 1016.52 1016.30 1016.05 1015.77 1015.48 1015.18 1014.85 1014.51 1014.14 1013.74 1013.33 1012.90 1012.46 1012.01 1011.58 1011.16 1010.74 1010.34 1009.92 1009.49 1009.01 1008.48 1007.89
1012.07 1012.57 1013.09 1013.62 1014.14 1014.63 1015.08 1015.46 1015.76 1015.99 1016.13 1016.20 1016.19 1016.12 1015.99 1015.81 1015.58 1015.33 1015.04 1014.73 1014.39 1014.03 1013.64 1013.22 1012.77 1012.31 1011.83 1011.35 1010.87 1010.41 1009.96 1009.53 1009.11 1008.68 1008.22 1007.71 1007.14 1006.49
1010.94 1011.47 1012.02 1012.58 1013.13 1013.64 1014.11 1014.51 1014.84 1015.10 1015.27 1015.37 1015.38 1015.33 1015.22 1015.05 1014.83 1014.57 1014.28 1013.95 1013.58 1013.18 1012.75 1012.28 1011.79 1011.28 1010.76 1010.23 1009.72 1009.22 1008.74 1008.29 1007.84 1007.38 1006.89 1006.35 1005.74 1005.04
1009.86 1010.43 1011.01 1011.59 1012.16 1012.68 1013.16 1013.57 1013.91 1014.17 1014.36 1014.47 1014.50 1014.47 1014.37 1014.22 1014.01 1013.75 1013.45 1013.11 1012.72 1012.30 1011.84 1011.34 1010.81 1010.26 1009.70 1009.13 1008.58 1008.04 1007.53 1007.03 1006.54 1006.05 1005.53 1004.95 1004.31 1003.58
1008.83 1009.44 1010.05 1010.65 1011.22 1011.74 1012.20 1012.60 1012.92 1013.18 1013.36 1013.48 1013.52 1013.50 1013.42 1013.28 1013.09 1012.84 1012.54 1012.20 1011.81 1011.38 1010.91 1010.39 1009.85 1009.27 1008.68 1008.08 1007.48 1006.90 1006.33 1005.78 1005.24 1004.70 1004.14 1003.54 1002.87 1002.13
1007.83 1008.47 1009.10 1009.70 1010.25 1010.75 1011.19 1011.56 1011.86 1012.10 1012.27 1012.38 1012.43 1012.42 1012.36 1012.24 1012.06 1011.84 1011.57 1011.24 1010.87 1010.45 1009.98 1009.48 1008.92 1008.34 1007.72 1007.09 1006.44 1005.80 1005.17 1004.56 1003.96 1003.36 1002.76 1002.13 1001.45 1000.73
1006.83 1007.47 1008.09 1008.68 1009.21 1009.68 1010.08 1010.41 1010.68 1010.90 1011.06 1011.17 1011.23 1011.24 1011.20 1011.11 1010.97 1010.78 1010.55 1010.26 1009.92 1009.53 1009.09 1008.60 1008.06 1007.47 1006.84 1006.17 1005.48 1004.77 1004.07 1003.38 1002.70 1002.04 1001.39 1000.74 1000.08 999.38
1005.78 1006.40 1007.00 1007.55 1008.04 1008.46 1008.82 1009.13 1009.37 1009.58 1009.74 1009.86 1009.94 1009.99 1009.99 1009.95 1009.86 1009.73 1009.54 1009.30 1009.01 1008.66 1008.26 1007.80 1007.27 1006.69 1006.04 1005.33 1004.59 1003.82 1003.04 1002.27 1001.51 1000.78 1000.09 999.42 998.76 998.10
1004.64 1005.22 1005.77 1006.27 1006.71 1007.10 1007.43 1007.71 1007.96 1008.17 1008.35 1008.51 1008.64 1008.74 1008.80 1008.82 1008.79 1008.72 1008.59 1008.40 1008.16 1007.86 1007.50 1007.07 1006.56 1005.98 1005.32 1004.58 1003.79 1002.96 1002.10 1001.25 1000.41 999.62 998.88 998.18 997.53 996.92
1003.42 1003.93 1004.42 1004.87 1005.27 1005.63 1005.95 1006.24 1006.50 1006.75 1006.99 1007.20 1007.40 1007.57 1007.70 1007.79 1007.82 1007.81 1007.73 1007.60 1007.40 1007.14 1006.81 1006.40 1005.91 1005.33 1004.66 1003.91 1003.07 1002.18 1001.26 1000.34 999.44 998.58 997.79 997.08 996.43 995.84
1002.14 1002.58 1003.01 1003.41 1003.79 1004.14 1004.47 1004.79 1005.10 1005.41 1005.72 1006.02 1006.29 1006.54 1006.74 1006.89 1006.99 1007.02 1006.98 1006.89 1006.72 1006.48 1006.17 1005.78 1005.30 1004.72 1004.05 1003.28 1002.41 1001.49 1000.52 999.55 998.60 997.70 996.87 996.14 995.49 994.91
1000.85 1001.23 1001.61 1001.99 1002.36 1002.73 1003.10 1003.48 1003.86 1004.25 1004.63 1005.01 1005.37 1005.69 1005.95 1006.16 1006.29 1006.35 1006.33 1006.25 1006.09 1005.86 1005.55 1005.16 1004.69 1004.11 1003.44 1002.67 1001.80 1000.86 999.87 998.88 997.90 996.97 996.12 995.37 994.71 994.13
999.61 999.95 1000.32 1000.70 1001.10 1001.50 1001.93 1002.37 1002.83 1003.30 1003.77 1004.22 1004.64 1005.01 1005.32 1005.55 1005.70 1005.77 1005.75 1005.65 1005.48 1005.23 1004.91 1004.52 1004.04 1003.47 1002.81 1002.05 1001.19 1000.27 999.29 998.30 997.32 996.39 995.53 994.76 994.09 993.51
998.49 998.83 999.21 999.62 1000.05 1000.52 1001.01 1001.52 1002.05 1002.58 1003.11 1003.62 1004.08 1004.48 1004.81 1005.04 1005.18 1005.22 1005.18 1005.05 1004.85 1004.57 1004.24 1003.83 1003.35 1002.79 1002.14 1001.40 1000.58 999.69 998.74 997.78 996.82 995.91 995.06 994.29 993.62 993.03
997.53 997.89 998.31 998.76 999.25 999.77 1000.32 1000.89 1001.47 1002.05 1002.61 1003.15 1003.62 1004.02 1004.34 1004.55 1004.66 1004.67 1004.59 1004.42 1004.18 1003.87 1003.51 1003.09 1002.60 1002.05 1001.42 1000.71 999.93 999.09 998.20 997.28 996.37 995.49 994.67 993.92 993.25 992.66
996.73 997.14 997.61 998.12 998.65 999.22 999.81 1000.41 1001.02 1001.62 1002.19 1002.72 1003.18 1003.56 1003.84 1004.02 1004.10 1004.07 1003.95 1003.75 1003.48 1003.14 1002.76 1002.32 1001.83 1001.28 1000.67 1000.00 999.26 998.46 997.62 996.77 995.91 995.08 994.29 993.57 992.93 992.34
996.08 996.54 997.06 997.61 998.19 998.78 999.39 1000.00 1000.61 1001.19 1001.74 1002.25 1002.68 1003.03 1003.28 1003.43 1003.48 1003.43 1003.28 1003.06 1002.77 1002.42 1002.02 1001.57 1001.08 1000.53 999.93 999.28 998.57 997.81 997.02 996.21 995.41 994.63 993.89 993.21 992.60 992.04
995.53 996.04 996.59 997.16 997.75 998.36 998.96 999.55 1000.14 1000.69 1001.21 1001.68 1002.08 1002.40 1002.63 1002.77 1002.81 1002.75 1002.61 1002.39 1002.10 1001.75 1001.34 1000.89 1000.39 999.84 999.23 998.58 997.88 997.15 996.39 995.62 994.86 994.12 993.43 992.80 992.23 991.71
995.05 995.57 996.13 996.71 997.29 997.88 998.46 999.03 999.57 1000.10 1000.58 1001.02 1001.39 1001.70 1001.93 1002.07 1002.12 1002.09 1001.97 1001.77 1001.50 1001.17 1000.77 1000.31 999.80 999.23 998.61 997.94 997.24 996.50 995.75 995.00 994.27 993.57 992.92 992.33 991.81 991.34
994.61 995.12 995.66 996.22 996.78 997.34 997.89 998.42 998.93 999.42 999.88 1000.29 1000.66 1000.97 1001.21 1001.37 1001.46 1001.47 1001.40 1001.24 1001.01 1000.69 1000.31 999.85 999.32 998.73 998.09 997.39 996.66 995.90 995.14 994.39 993.67 992.99 992.38 991.83 991.35 990.93
994.19 994.68 995.19 995.71 996.24 996.76 997.28 997.78 998.27 998.73 999.17 999.57 999.94 1000.26 1000.53 1000.73 1000.86 1000.92 1000.90 1000.79 1000.60 1000.31 999.94 999.49 998.95 998.34 997.66 996.93 996.16 995.37 994.59 993.83 993.11 992.45 991.85 991.33 990.88 990.51
993.81 994.26 994.73 995.22 995.71 996.21 996.70 997.17 997.64 998.09 998.51 998.92 999.29 999.62 999.91 1000.15 1000.32 1000.42 1000.45 1000.39 1000.23 999.98 999.62 999.17 998.63 998.01 997.31 996.55 995.75 994.94 994.14 993.37 992.64 991.98 991.40 990.89 990.47 990.12
Thickness
5466 5458 5451 5445 5437 5430 5422 5413 5402 5393 5396 5394 5387 5384 5378 5372 5367 5361 5356 5351 5346 5341 5337 5332 5327 5323 5317 5312 5308 5304 5300 5298 5298 5299 5303 5310 5321 5334
5457 5449 5442 5435 5426 5418 5410 5402 5395 5387 5383 5384 5377 5371 5364 5359 5353 5348 5343 5337 5332 5327 5321 5316 5311 5306 5300 5295 5289 5285 5281 5279 5279 5281 5285 5292 5301 5315
5449 5441 5433 5424 5415 5407 5399 5391 5385 5378 5374 5374 5366 5359 5352 5345 5340 5335 5330 5324 5319 5313 5307 5302 5297 5291 5284 5279 5274 5270 5266 5265 5265 5268 5272 5279 5289 5301
5442 5432 5425 5415 5406 5398 5389 5383 5376 5370 5363 5360 5356 5348 5341 5334 5328 5323 5318 5313 5307 5301 5295 5289 5283 5277 5271 5266 5261 5257 5254 5253 5255 5258 5264 5271 5281 5292
5435 5425 5417 5405 5398 5390 5381 5374 5367 5360 5354 5349 5345 5338 5331 5323 5317 5313 5308 5302 5296 5290 5284 5278 5271 5265 5259 5255 5250 5247 5245 5245 5248 5251 5257 5264 5273 5285
5428 5419 5409 5399 5390 5380 5372 5365 5357 5349 5343 5338 5334 5328 5322 5314 5306 5303 5299 5292 5286 5279 5273 5267 5260 5255 5250 5245 5241 5239 5238 5239 5241 5246 5252 5258 5268 5281
5420 5411 5402 5392 5382 5372 5364 5357 5348 5341 5334 5329 5325 5319 5314 5305 5299 5293 5289 5283 5278 5268 5263 5257 5250 5246 5241 5236 5232 5231 5230 5232 5236 5242 5248 5256 5266 5279
5411 5402 5393 5384 5376 5368 5361 5353 5343 5334 5327 5321 5317 5311 5306 5298 5291 5284 5277 5271 5270 5262 5252 5251 5241 5239 5235 5230 5228 5226 5227 5229 5234 5239 5246 5255 5265 5279
5401 5392 5383 5376 5367 5359 5353 5348 5341 5334 5326 5315 5310 5305 5298 5291 5282 5275 5268 5261 5259 5252 5242 5244 5237 5233 5230 5226 5224 5223 5224 5227 5231 5237 5244 5254 5266 5278
5393 5383 5374 5366 5359 5350 5342 5336 5331 5325 5319 5312 5305 5298 5290 5282 5273 5267 5261 5256 5252 5244 5233 5232 5232 5228 5226 5222 5219 5219 5222 5224 5228 5234 5243 5254 5265 5278
5384 5375 5366 5358 5352 5343 5335 5328 5322 5317 5311 5306 5300 5293 5285 5278 5269 5261 5254 5247 5246 5241 5228 5221 5224 5221 5222 5219 5217 5216 5218 5221 5225 5232 5241 5253 5266 5279
5375 5367 5360 5352 5344 5337 5329 5322 5317 5311 5303 5296 5291 5285 5278 5271 5264 5255 5246 5238 5235 5232 5224 5215 5214 5209 5215 5218 5214 5212 5213 5216 5222 5229 5240 5253 5265 5279
5366 5360 5352 5345 5338 5331 5324 5318 5313 5305 5296 5289 5283 5276 5270 5263 5256 5249 5240 5232 5226 5223 5217 5209 5207 5203 5201 5209 5211 5209 5209 5213 5218 5227 5238 5252 5265 5279
5357 5351 5343 5336 5330 5324 5318 5313 5307 5300 5291 5283 5276 5270 5263 5257 5251 5244 5238 5230 5223 5218 5213 5205 5201 5199 5198 5202 5206 5209 5209 5211 5215 5224 5236 5250 5265 5281
5348 5342 5335 5328 5321 5316 5312 5307 5301 5292 5284 5277 5271 5265 5258 5252 5246 5239 5233 5226 5220 5215 5210 5204 5199 5197 5195 5198 5203 5206 5208 5213 5216 5223 5235 5248 5263 5279
5339 5334 5328 5321 5313 5308 5304 5299 5292 5285 5278 5271 5265 5258 5252 5246 5240 5234 5228 5222 5217 5214 5208 5203 5199 5197 5197 5198 5200 5205 5207 5210 5217 5223 5234 5249 5265 5281
5327 5322 5316 5311 5306 5300 5294 5289 5283 5277 5272 5265 5258 5251 5246 5240 5235 5229 5223 5218 5213 5211 5208 5204 5201 5199 5198 5199 5202 5206 5208 5212 5216 5223 5235 5251 5267 5283
5320 5315 5310 5304 5299 5294 5288 5283 5277 5271 5264 5258 5251 5245 5240 5235 5229 5224 5219 5214 5211 5208 5206 5203 5201 5201 5202 5204 5205 5207 5210 5213 5218 5225 5236 5251 5270 5286
5314 5309 5303 5298 5293 5287 5282 5276 5270 5265 5258 5252 5246 5240 5235 5229 5225 5221 5216 5212 5209 5206 5204 5201 5199 5198 5201 5206 5208 5210 5211 5215 5219 5228 5239 5252 5269 5288
5309 5303 5297 5292 5286 5281 5275 5270 5263 5257 5251 5246 5239 5234 5229 5224 5220 5217 5213 5209 5207 5205 5203 5201 5198 5198 5199 5204 5208 5212 5213 5214 5220 5230 5241 5254 5270 5288
5303 5297 5292 5286 5281 5275 5269 5264 5257 5252 5246 5240 5234 5229 5224 5220 5216 5213 5210 5208 5206 5203 5202 5201 5200 5201 5202 5203 5208 5215 5217 5220 5224 5232 5243 5255 5272 5291
5297 5291 5286 5280 5275 5269 5263 5257 5251 5246 5240 5234 5229 5224 5220 5216 5213 5210 5207 5205 5203 5201 5200 5201 5201 5201 5201 5204 5210 5215 5220 5225 5231 5239 5249 5260 5275 5297
5291 5286 5280 5274 5269 5263 5257 5251 5246 5241 5235 5230 5225 5221 5217 5214 5211 5208 5205 5203 5201 5200 5200 5200 5201 5201 5203 5206 5211 5216 5221 5227 5235 5244 5257 5270 5283 5298